Location: Arpaise
(41.0333°N, 14.7333°E)
Time: 16:29:47
(UTC+00:00)

Cosmos 1709 Rocket - Pass Details

Date: 05 July 2020
Orbit: 948 x 1002 km, 82.9° (Epoch: 11 August)

Event Time Altitude Azimuth Distance (km) Brightness Sun altitude
Exits shadow 20:24:12 10° 189° (S) 2,734 6.0 -16.1°
Reaches altitude 10° 20:24:13 10° 189° (S) 2,725 5.9 -16.1°
Maximum altitude 20:30:29 83° 277° (W) 1,003 4.1 -16.8°
Drops below altitude 10° 20:36:53 10° 6° (N) 2,774 7.1 -17.5°
Sets 20:39:26 0° 7° (N) 3,731 7.8 -17.8°
